CW3794 Weather Reports


Display with metric or nautical units.
time (UTC)temp
F
wind
direction
speed
MPH
gust
MPH
rain 1hr
in
rain 24hr
in
rain mn
in
humidity
%
barometer
mb
20260904234404 99 244 0.0 0.0 0.00 0.00 0.00 31 1006.6
20260904233905 99 244 0.0 0.0 0.00 0.00 0.00 31 1006.6
20260904233404 99 244 0.0 0.0 0.00 0.00 0.00 31 1006.7
20260904232905 100 244 0.0 0.0 0.00 0.00 0.00 31 1006.6
20260904232404 99 244 0.0 0.0 0.00 0.00 0.00 33 1006.7
20260904231905 99 244 0.0 0.0 0.00 0.00 0.00 34 1006.8
20260904231405 98 244 0.0 0.0 0.00 0.00 0.00 34 1006.8
20260904230905 98 244 0.0 0.0 0.00 0.00 0.00 33 1006.9
20260904230404 98 245 0.0 0.0 0.00 0.00 0.00 33 1006.9
20260904225905 98 245 0.0 0.0 0.00 0.00 0.00 33 1006.8
20260904225404 98 244 0.0 0.0 0.00 0.00 0.00 33 1007.0
20260904224904 98 245 0.0 0.0 0.00 0.00 0.00 33 1007.1
20260904224404 98 214 0.0 0.0 0.00 0.00 0.00 34 1007.1
20260904223904 98 213 0.0 0.0 0.00 0.00 0.00 34 1007.0
20260904223404 99 213 0.0 2.0 0.00 0.00 0.00 34 1007.0
20260904222904 99 214 0.0 0.0 0.00 0.00 0.00 34 1007.1
20260904222405 98 214 0.0 0.0 0.00 0.00 0.00 34 1007.2
20260904221404 99 214 0.0 1.0 0.00 0.00 0.00 32 1007.2
20260904220905 99 203 1.0 12.0 0.00 0.00 0.00 33 1007.0
20260904220405 99 202 1.0 3.0 0.00 0.00 0.00 33 1007.3
20260904215904 99 206 0.0 3.0 0.00 0.00 0.00 33 1007.3
20260904215404 99 206 0.0 0.0 0.00 0.00 0.00 32 1007.6
20260904214905 99 205 0.0 0.0 0.00 0.00 0.00 33 1007.6
20260904213905 99 244 0.0 3.0 0.00 0.00 0.00 33 1007.7
20260904213405 99 253 0.0 0.0 0.00 0.00 0.00 33 1007.7
20260904212404 98 253 0.0 0.0 0.00 0.00 0.00 33 1007.9
20260904211904 98 253 0.0 0.0 0.00 0.00 0.00 35 1007.9
20260904211404 97 267 0.0 0.0 0.00 0.00 0.00 35 1008.0
20260904210905 98 273 0.0 2.0 0.00 0.00 0.00 35 1008.0
20260904210404 98 186 1.0 9.0 0.00 0.00 0.00 36 1008.1
20260904205404 98 219 0.0 2.0 0.00 0.00 0.00 36 1008.2
20260904204904 98 242 0.0 2.0 0.00 0.00 0.00 36 1008.3
20260904204404 97 242 0.0 1.0 0.00 0.00 0.00 37 1008.3
20260904203905 97 187 0.0 0.0 0.00 0.00 0.00 36 1008.5
20260904202905 96 243 0.0 0.0 0.00 0.00 0.00 37 1008.6
20260904202404 96 202 0.0 0.0 0.00 0.00 0.00 39 1008.6
20260904201905 96 202 0.0 0.0 0.00 0.00 0.00 39 1008.8
20260904201405 96 202 0.0 3.0 0.00 0.00 0.00 38 1008.9
20260904200905 96 202 0.0 2.0 0.00 0.00 0.00 38 1009.0
20260904200405 96 196 0.0 3.0 0.00 0.00 0.00 38 1008.9
20260904195904 96 174 0.0 0.0 0.00 0.00 0.00 38 1008.9
20260904194905 96 174 2.0 12.0 0.00 0.00 0.00 38 1009.1
20260904193905 96 171 0.0 3.0 0.00 0.00 0.00 40 1009.1
20260904193404 96 169 0.0 0.0 0.00 0.00 0.00 40 1009.1
20260904192905 96 169 1.0 10.0 0.00 0.00 0.00 40 1009.2
20260904192405 96 177 0.0 6.0 0.00 0.00 0.00 40 1009.3
20260904191905 95 176 0.0 5.0 0.00 0.00 0.00 40 1009.4
20260904191404 95 190 0.0 0.0 0.00 0.00 0.00 41 1009.4
20260904190904 95 190 0.0 0.0 0.00 0.00 0.00 41 1009.6
20260904190404 96 175 0.0 12.0 0.00 0.00 0.00 39 1009.6
20260904185904 95 170 1.0 6.0 0.00 0.00 0.00 40 1009.7
20260904185404 95 170 0.0 5.0 0.00 0.00 0.00 40 1009.7
20260904184904 95 171 1.0 7.0 0.00 0.00 0.00 41 1009.8
20260904184404 95 173 1.0 6.0 0.00 0.00 0.00 41 1009.8
20260904183904 95 175 0.0 3.0 0.00 0.00 0.00 42 1010.0
20260904183405 94 175 1.0 6.0 0.00 0.00 0.00 42 1010.0
20260904182904 94 173 1.0 5.0 0.00 0.00 0.00 41 1010.1
20260904182404 94 174 0.0 1.0 0.00 0.00 0.00 41 1010.2
20260904181904 94 174 1.0 7.0 0.00 0.00 0.00 43 1010.2
20260904180904 94 170 0.0 5.0 0.00 0.00 0.00 42 1010.5
20260904175904 93 173 0.0 3.0 0.00 0.00 0.00 45 1010.4
20260904175404 93 173 0.0 12.0 0.00 0.00 0.00 45 1010.5
20260904174904 93 172 1.0 5.0 0.00 0.00 0.00 46 1010.5
20260904174404 93 184 1.0 8.0 0.00 0.00 0.00 47 1010.4
20260904173904 93 173 0.0 3.0 0.00 0.00 0.00 48 1010.4
20260904173404 92 175 0.0 3.0 0.00 0.00 0.00 48 1010.6
20260904172904 92 175 1.0 5.0 0.00 0.00 0.00 47 1010.6
20260904172404 92 172 0.0 7.0 0.00 0.00 0.00 49 1010.6
20260904171904 92 176 0.0 3.0 0.00 0.00 0.00 49 1010.6
20260904170904 92 178 0.0 6.0 0.00 0.00 0.00 49 1010.6
20260904170405 92 184 0.0 3.0 0.00 0.00 0.00 50 1010.5
20260904165405 92 183 0.0 5.0 0.00 0.00 0.00 50 1010.4
20260904164904 91 170 0.0 3.0 0.00 0.00 0.00 51 1010.5
20260904164404 91 165 0.0 3.0 0.00 0.00 0.00 51 1010.4
20260904163905 90 164 0.0 5.0 0.00 0.00 0.00 52 1010.5
20260904163404 90 149 0.0 3.0 0.00 0.00 0.00 52 1010.4
20260904162904 90 158 0.0 2.0 0.00 0.00 0.00 52 1010.4
20260904162404 90 152 0.0 2.0 0.00 0.00 0.00 53 1010.3
20260904161904 90 156 1.0 3.0 0.00 0.00 0.00 52 1010.3
20260904161404 90 163 0.0 0.0 0.00 0.00 0.00 54 1010.3
20260904160905 89 163 0.0 2.0 0.00 0.00 0.00 53 1010.3
20260904160405 89 164 1.0 5.0 0.00 0.00 0.00 54 1010.3
20260904155904 89 172 0.0 3.0 0.00 0.00 0.00 54 1010.3
20260904155405 89 169 0.0 2.0 0.00 0.00 0.00 55 1010.2
20260904154904 89 168 0.0 2.0 0.00 0.00 0.00 56 1010.2
20260904153904 88 168 0.0 5.0 0.00 0.00 0.00 57 1010.2
20260904152904 88 177 0.0 0.0 0.00 0.00 0.00 58 1010.2
20260904152405 87 179 0.0 0.0 0.00 0.00 0.00 58 1010.3
20260904151904 87 179 0.0 0.0 0.00 0.00 0.00 58 1010.4
20260904151404 87 151 0.0 0.0 0.00 0.00 0.00 58 1010.4
20260904150904 87 169 0.0 0.0 0.00 0.00 0.00 59 1010.3
20260904150404 86 165 0.0 0.0 0.00 0.00 0.00 59 1010.3
20260904145904 86 165 0.0 0.0 0.00 0.00 0.00 59 1010.2
20260904145404 86 163 0.0 0.0 0.00 0.00 0.00 59 1010.1
20260904144904 86 162 0.0 3.0 0.00 0.00 0.00 59 1010.1
20260904144404 86 162 0.0 0.0 0.00 0.00 0.00 59 1010.0
20260904143904 86 155 0.0 0.0 0.00 0.00 0.00 60 1010.0
20260904142904 85 154 0.0 0.0 0.00 0.00 0.00 60 1010.1
20260904142405 85 154 0.0 0.0 0.00 0.00 0.00 61 1009.9
20260904141904 85 146 0.0 0.0 0.00 0.00 0.00 61 1009.9
20260904141404 85 146 0.0 0.0 0.00 0.00 0.00 62 1009.8
20260904140904 84 145 0.0 0.0 0.00 0.00 0.00 62 1009.9
20260904135904 84 7 0.0 0.0 0.00 0.00 0.00 63 1009.7
20260904135405 83 8 0.0 0.0 0.00 0.00 0.00 63 1009.6
20260904134904 83 7 0.0 0.0 0.00 0.00 0.00 64 1009.5
20260904134404 83 9 0.0 0.0 0.00 0.00 0.00 64 1009.5
20260904133904 83 8 0.0 0.0 0.00 0.00 0.00 64 1009.4
20260904133404 82 7 0.0 0.0 0.00 0.00 0.00 65 1009.4
20260904132404 82 9 0.0 0.0 0.00 0.00 0.00 65 1009.2
20260904131920 82 7 0.0 0.0 0.00 0.00 0.00 65 1009.1
20260904131404 82 8 0.0 0.0 0.00 0.00 0.00 65 1009.0
20260904125904 82 8 0.0 0.0 0.00 0.00 0.00 64 1008.7
20260904125404 82 8 0.0 0.0 0.00 0.00 0.00 64 1008.7
20260904124904 82 8 0.0 0.0 0.00 0.00 0.00 64 1008.6
20260904124404 82 8 0.0 0.0 0.00 0.00 0.00 64 1008.5
20260904123405 82 7 0.0 0.0 0.00 0.00 0.00 64 1008.5
20260904122905 82 9 0.0 0.0 0.00 0.00 0.00 64 1008.4
20260904122404 82 8 0.0 0.0 0.00 0.00 0.00 63 1008.4
20260904121906 82 8 0.0 0.0 0.00 0.00 0.00 63 1008.4
20260904120404 82 7 0.0 0.0 0.00 0.00 0.00 63 1008.4
20260904115904 82 8 0.0 0.0 0.00 0.00 0.00 63 1008.2
20260904115404 82 9 0.0 0.0 0.00 0.00 0.00 63 1008.2
20260904114904 82 8 0.0 0.0 0.00 0.00 0.00 63 1008.2
20260904114404 82 7 0.0 0.0 0.00 0.00 0.00 63 1008.2
20260904113905 82 8 0.0 0.0 0.00 0.00 0.00 63 1008.2
20260904113404 82 355 0.0 1.0 0.00 0.00 0.00 63 1008.2
20260904112904 82 179 0.0 0.0 0.00 0.00 0.00 62 1008.1
20260904112405 82 251 0.0 0.0 0.00 0.00 0.00 62 1008.2
20260904111904 82 257 0.0 0.0 0.00 0.00 0.00 62 1008.2
20260904111405 82 254 0.0 0.0 0.00 0.00 0.00 62 1008.1
20260904110904 83 226 0.0 0.0 0.00 0.00 0.00 61 1008.1
20260904110405 83 210 0.0 0.0 0.00 0.00 0.00 61 1008.1
20260904105904 83 246 0.0 0.0 0.00 0.00 0.00 61 1008.1
20260904104904 83 178 0.0 0.0 0.00 0.00 0.00 60 1008.0
20260904103904 83 177 0.0 0.0 0.00 0.00 0.00 60 1007.9
20260904102404 83 173 0.0 0.0 0.00 0.00 0.00 60 1007.7
20260904101904 83 174 0.0 0.0 0.00 0.00 0.00 60 1007.7
20260904101404 83 173 0.0 0.0 0.00 0.00 0.00 59 1007.7
20260904100904 83 174 0.0 0.0 0.00 0.00 0.00 59 1007.7
20260904095905 84 173 0.0 0.0 0.00 0.00 0.00 59 1007.7
20260904095405 84 174 0.0 0.0 0.00 0.00 0.00 58 1007.7
20260904094905 84 173 0.0 0.0 0.00 0.00 0.00 58 1007.6
20260904093904 84 173 0.0 0.0 0.00 0.00 0.00 58 1007.5
20260904093405 84 174 0.0 0.0 0.00 0.00 0.00 58 1007.5
20260904092904 84 173 0.0 0.0 0.00 0.00 0.00 58 1007.5
20260904092404 84 173 0.0 0.0 0.00 0.00 0.00 57 1007.4
20260904091904 85 173 0.0 0.0 0.00 0.00 0.00 57 1007.5
20260904091404 85 173 0.0 0.0 0.00 0.00 0.00 57 1007.4
20260904090904 85 173 0.0 0.0 0.00 0.00 0.00 56 1007.5
20260904085905 85 173 0.0 0.0 0.00 0.00 0.00 56 1007.5
20260904085404 85 173 0.0 0.0 0.00 0.00 0.00 56 1007.5
20260904084905 85 173 0.0 0.0 0.00 0.00 0.00 56 1007.5
20260904084405 85 173 0.0 0.0 0.00 0.00 0.00 56 1007.6
20260904082904 86 173 0.0 0.0 0.00 0.00 0.00 55 1007.6
20260904082404 86 173 0.0 0.0 0.00 0.00 0.00 55 1007.6
20260904081904 86 173 0.0 0.0 0.00 0.00 0.00 54 1007.6
20260904081404 86 173 0.0 0.0 0.00 0.00 0.00 54 1007.6
20260904080904 86 173 0.0 0.0 0.00 0.00 0.00 54 1007.6
20260904075905 87 173 0.0 0.0 0.00 0.00 0.00 53 1007.5
20260904075403 87 173 0.0 0.0 0.00 0.00 0.00 53 1007.5
20260904074904 87 173 0.0 0.0 0.00 0.00 0.00 52 1007.5
20260904074405 87 173 0.0 0.0 0.00 0.00 0.00 52 1007.6
20260904073404 87 173 0.0 0.0 0.00 0.00 0.00 52 1007.5
20260904072904 87 173 0.0 0.0 0.00 0.00 0.00 51 1007.5
20260904072404 87 173 0.0 0.0 0.00 0.00 0.00 51 1007.6
20260904071404 88 173 0.0 0.0 0.00 0.00 0.00 50 1007.6
20260904070904 88 173 0.0 0.0 0.00 0.00 0.00 49 1007.5
20260904070404 88 173 0.0 0.0 0.00 0.00 0.00 49 1007.4
20260904065904 88 173 0.0 0.0 0.00 0.00 0.00 48 1007.4
20260904065404 88 173 0.0 0.0 0.00 0.00 0.00 48 1007.4
20260904064904 89 173 0.0 0.0 0.00 0.00 0.00 48 1007.2
20260904064404 89 173 0.0 0.0 0.00 0.00 0.00 47 1007.1
20260904063404 89 173 0.0 0.0 0.00 0.00 0.00 47 1007.2
20260904062405 89 173 0.0 0.0 0.00 0.00 0.00 46 1007.0
20260904061904 89 173 0.0 0.0 0.00 0.00 0.00 46 1007.0
20260904060904 89 174 0.0 0.0 0.00 0.00 0.00 46 1007.1
20260904060403 89 173 0.0 0.0 0.00 0.00 0.00 46 1007.0
20260904055904 89 173 0.0 0.0 0.00 0.00 0.00 45 1007.1
20260904055404 89 173 0.0 0.0 0.00 0.00 0.00 45 1007.1
20260904054904 89 173 0.0 0.0 0.00 0.00 0.00 45 1007.0
20260904054404 89 173 0.0 0.0 0.00 0.00 0.00 45 1006.9
20260904053904 89 173 0.0 0.0 0.00 0.00 0.00 45 1006.9
20260904053404 89 173 0.0 0.0 0.00 0.00 0.00 45 1006.9
20260904052903 89 173 0.0 0.0 0.00 0.00 0.00 46 1006.9
20260904052404 89 173 0.0 0.0 0.00 0.00 0.00 45 1006.9
20260904051904 89 174 0.0 0.0 0.00 0.00 0.00 46 1006.9
20260904051404 89 173 0.0 0.0 0.00 0.00 0.00 46 1006.8
20260904050904 89 174 0.0 0.0 0.00 0.00 0.00 46 1006.8
20260904050404 89 173 0.0 0.0 0.00 0.00 0.00 46 1006.7
20260904045903 90 173 0.0 0.0 0.00 0.00 0.00 45 1006.8
20260904045404 90 173 0.0 0.0 0.00 0.00 0.00 45 1006.8
20260904044903 90 173 0.0 0.0 0.00 0.00 0.00 44 1006.7
20260904044404 90 173 0.0 0.0 0.00 0.00 0.00 44 1006.7
20260904043904 90 174 0.0 0.0 0.00 0.00 0.00 44 1006.8
20260904043403 90 173 0.0 0.0 0.00 0.00 0.00 44 1006.8
20260904042904 90 173 0.0 0.0 0.00 0.00 0.00 44 1006.8
20260904042404 90 173 0.0 0.0 0.00 0.00 0.00 44 1006.8
20260904041904 90 173 0.0 0.0 0.00 0.00 0.00 45 1006.8
20260904041404 90 173 0.0 0.0 0.00 0.00 0.00 44 1006.7
20260904040904 90 173 0.0 0.0 0.00 0.00 0.00 44 1006.7
20260904040404 90 173 0.0 0.0 0.00 0.00 0.00 44 1006.7
20260904035404 90 173 0.0 0.0 0.00 0.00 0.00 45 1006.7
20260904034404 91 173 0.0 0.0 0.00 0.00 0.00 43 1006.5
20260904033904 91 173 0.0 0.0 0.00 0.00 0.00 42 1006.4
20260904032904 91 174 0.0 0.0 0.00 0.00 0.00 42 1006.2
20260904032404 92 173 0.0 0.0 0.00 0.00 0.00 42 1006.2
20260904031903 92 174 0.0 0.0 0.00 0.00 0.00 42 1006.2
20260904031404 92 173 0.0 5.0 0.00 0.00 0.00 42 1006.1
20260904030904 92 173 0.0 2.0 0.00 0.00 0.00 41 1006.0
20260904030404 92 174 0.0 1.0 0.00 0.00 0.00 41 1006.0
20260904025904 92 174 0.0 0.0 0.00 0.00 0.00 41 1006.0
20260904025403 92 175 0.0 0.0 0.00 0.00 0.00 41 1005.9
20260904024904 92 175 1.0 6.0 0.00 0.00 0.00 41 1005.7
20260904024404 93 176 0.0 0.0 0.00 0.00 0.00 41 1005.7
20260904023404 93 173 1.0 10.0 0.00 0.00 0.00 41 1005.7
20260904022904 94 176 1.0 9.0 0.00 0.00 0.00 40 1005.5
20260904022403 94 175 0.0 5.0 0.00 0.00 0.00 39 1005.5
20260904021904 95 167 1.0 6.0 0.00 0.00 0.00 36 1005.4
20260904021404 95 175 0.0 0.0 0.00 0.00 0.00 35 1005.2
20260904020403 95 175 0.0 0.0 0.00 0.00 0.00 35 1005.2
20260904015904 95 175 0.0 0.0 0.00 0.00 0.00 35 1005.3
20260904015404 95 175 0.0 0.0 0.00 0.00 0.00 35 1005.3
20260904014904 95 175 0.0 0.0 0.00 0.00 0.00 35 1005.2
20260904014404 96 175 0.0 0.0 0.00 0.00 0.00 34 1005.2
20260904013904 96 175 0.0 0.0 0.00 0.00 0.00 34 1005.2
20260904012904 96 175 0.0 0.0 0.00 0.00 0.00 35 1005.2
20260904012403 96 175 0.0 0.0 0.00 0.00 0.00 34 1005.2
20260904011904 96 175 0.0 0.0 0.00 0.00 0.00 34 1005.2
20260904011404 96 175 0.0 0.0 0.00 0.00 0.00 33 1005.2
20260904010904 96 175 0.0 0.0 0.00 0.00 0.00 33 1005.2
20260904010404 97 175 0.0 0.0 0.00 0.00 0.00 33 1005.2
20260904005903 97 175 0.0 0.0 0.00 0.00 0.00 33 1005.3
20260904005404 97 175 0.0 0.0 0.00 0.00 0.00 33 1005.3
20260904004904 98 175 0.0 0.0 0.00 0.00 0.00 33 1005.3
20260904003904 98 175 0.0 0.0 0.00 0.00 0.00 33 1005.3
20260904003404 97 175 0.0 0.0 0.00 0.00 0.00 33 1005.3
20260904002404 97 175 0.0 6.0 0.00 0.00 0.00 33 1005.3
20260904001903 97 175 0.0 0.0 0.00 0.00 0.00 33 1005.4
20260904001404 97 175 0.0 0.0 0.00 0.00 0.00 33 1005.4
20260904000904 97 175 0.0 0.0 0.00 0.00 0.00 33 1005.4
20260903235903 98 175 0.0 0.0 0.00 0.00 0.00 33 1005.4
20260903235403 97 175 0.0 0.0 0.00 0.00 0.00 33 1005.5
20260903234904 97 174 0.0 1.0 0.00 0.00 0.00 33 1005.5